map of TNG home
TNG - Airport
Location
City:  Tanger, Morocco
Near (Alt.):Tangier
Name:Boukhalef
ICAO:GMTT
IATA:TNG

Details
Type:Airport (Aerodrome, Airfield)
Use:Public/Civil, International (customs port of entry)
Latitude:3543'37"N (35.726917)
Longitude:555'01"W (-5.916888)
Datum:WGS 1984
Elevation:62 ft (19 m)
Variation:1.41W (WMM2015 magnetic declination)
0.11 annual change
Runways:2
Longest:11483 × 148 ft (3500 × 45 m), paved

Time
Time Zone:UTC+0 (DST+1)
Local Time:

Weather
METAR:GMTT 072000Z 08012KT 9999 FEW020 16/11 Q1027 NOSIG
TAF:GMTT 071100Z 0712/0818 10018KT 9999 FEW016 BKN200
TEMPO 0715/0818 10020G32KT

Related Locations
Nearby:
Farthest:NZRW: 12437 mi / 20016 km
Ruawai, NTL, NZ

Find:

   beyond  
but within

Other Information
Maps:
NOTAMs:
Links:
Sources:

  
flag of Morocco   

Sectional Chart

Flight Planning
at skyvector.com

Satellite Image

Google Maps Satellite view

 

Copyright © 2004-2016 Karl L. Swartz. All rights reserved.
The Great Circle Mapper name and logo are trademarks of the Great Circle Mapper.
All other trademarks mentioned herein belong to their respective owners.
Please see credits for attibutions and further copyright information.

  Follow gcmap on Facebook Follow gcmap on Twitter Follow gcmap on Google+ GCmap on LinkedIn

hCard Microformat

Geo Microformat